Probability
0 0 0 0 0 0 0 0 0 0 1 6 10 14 17 16 17 20 23 27 31 36 43 49 49 42 34 31 29 30 31 30 30 31 31 30 28 27 27 26 26 29 30 29
0 0 0 0 0 0 0 0 0 0 3 8 12 15 16 15 16 19 21 24 30 36 43 50 51 44 35 32 32 32 31 30 30 31 30 29 27 26 27 28 28 29 30 29
0 0 0 0 0 0 0 0 0 2 6 10 14 16 17 16 15 17 19 22 28 36 43 50 51 45 39 36 36 37 34 31 30 30 28 27 26 25 27 28 29 30 31 30
1 0 0 0 0 0 0 0 1 5 10 12 13 15 17 17 15 16 18 22 28 34 40 46 48 45 42 41 40 39 36 32 28 27 27 27 27 27 28 29 30 31 32 32
1 0 0 0 0 0 0 1 4 8 11 12 13 14 17 19 19 19 20 24 29 33 36 41 44 43 41 40 40 38 35 31 27 26 27 29 30 32 33 35 36 35 33 33
1 0 0 0 1 1 1 3 7 9 10 12 14 15 18 22 23 22 21 24 28 31 33 38 42 41 39 37 36 35 33 31 30 30 33 35 37 39 41 42 41 38 35 34
0 0 1 2 4 5 7 9 10 10 10 12 16 19 20 22 24 25 23 23 25 29 33 38 41 41 39 36 33 32 33 34 36 38 39 42 45 46 46 45 43 39 36 35
0 2 4 6 7 10 13 14 12 12 11 12 15 18 20 22 26 29 28 25 25 29 35 39 40 40 40 36 32 31 33 37 41 42 43 44 47 47 45 43 39 35 32 32
2 4 6 7 7 9 11 12 11 11 11 12 14 17 19 22 27 31 32 29 29 31 36 39 40 41 41 38 34 33 35 38 40 42 42 42 42 40 39 37 32 27 26 25
5 6 6 6 5 5 6 8 8 8 9 12 15 18 18 21 27 32 32 32 32 33 36 40 42 43 43 40 36 34 35 35 36 38 39 39 36 32 29 27 23 20 20 19
9 8 7 6 5 4 4 6 8 8 9 11 15 17 18 21 27 30 31 33 34 35 37 39 41 43 41 39 37 37 36 33 32 33 34 34 29 23 20 18 15 14 14 15
8 8 7 6 5 4 4 6 8 9 11 12 15 18 21 23 26 29 30 32 35 36 37 37 38 39 37 36 37 38 36 31 28 27 28 27 23 17 13 10 7 6 6 7
4 4 4 4 5 5 5 6 8 11 13 16 18 22 25 26 28 30 29 30 33 35 35 35 34 33 33 34 35 34 31 27 25 24 22 21 19 16 12 9 6 3 2 1
2 1 1 3 4 6 7 9 12 14 16 18 20 22 23 25 28 30 28 27 31 33 32 33 32 29 29 31 31 29 25 24 24 22 18 17 17 16 15 13 10 6 3 1
1 0 1 2 3 5 8 13 16 17 18 17 17 17 18 20 25 28 26 26 30 31 30 31 30 28 28 29 27 25 21 21 22 21 17 15 15 15 15 15 14 11 7 4
1 1 1 2 3 4 6 10 13 15 16 15 14 14 14 17 22 25 25 25 28 30 30 29 28 27 26 26 24 21 18 16 17 17 15 15 15 15 15 15 14 12 8 6
3 3 3 3 4 4 4 5 8 10 12 13 14 14 15 17 20 23 23 23 26 28 28 28 27 24 23 23 21 18 15 14 14 14 14 15 15 14 13 12 12 9 6 4
3 4 4 3 4 4 4 3 5 7 10 12 14 14 15 16 18 21 21 22 25 25 25 25 23 21 20 20 19 16 14 13 14 13 13 13 12 11 10 10 9 7 4 3
1 1 2 2 3 4 4 5 6 7 8 11 13 14 14 16 18 20 21 22 23 22 21 19 18 18 18 16 15 15 14 13 13 12 11 10 8 6 7 9 8 6 4 3
0 0 1 2 4 5 6 6 7 7 7 9 12 13 14 17 19 20 20 19 19 18 16 14 14 16 17 13 11 12 12 11 10 9 9 7 5 4 4 6 5 4 3 2
1 1 2 4 6 7 7 7 7 7 6 8 10 12 14 17 20 21 18 15 14 15 11 8 9 12 12 10 8 9 9 7 7 8 7 5 3 2 2 2 2 1 1 1
2 3 4 5 7 7 7 7 6 6 7 8 10 12 14 16 19 19 16 12 10 9 6 3 4 5 5 5 6 6 5 4 5 5 4 3 1 0 0 0 0 0 0 0
4 4 6 7 7 6 6 6 6 6 7 9 12 14 15 15 15 14 12 10 7 4 2 1 1 1 1 3 4 4 3 3 3 3 2 1 0 0 0 0 0 0 0 0
4 5 6 6 6 6 6 5 5 5 7 10 12 13 12 11 10 9 9 7 4 2 1 0 0 0 1 2 3 3 3 3 2 2 1 0 0 0 0 1 1 0 0 0
4 4 4 4 4 4 4 4 4 4 6 9 10 9 8 8 7 7 7 5 2 1 1 1 0 0 1 1 1 1 2 1 1 1 0 0 0 0 0 1 1 0 0 0
4 4 3 2 2 2 2 2 2 4 5 7 7 7 7 6 6 5 5 5 4 3 3 2 1 0 0 0 0 0 0 0 0 0 0 0 0 0 0 1 1 0 0 1
3 4 4 2 1 1 0 0 1 4 6 6 6 6 6 6 6 5 4 5 6 5 4 3 2 1 0 0 0 0 0 0 0 0 0 0 0 0 0 0 0 0 1 1
Wind_Speed
10 10 10 11 11 9 9 8 7 4 4 3 3 2 4 5 4 4 3 3 4 5 5 5 5 4 4 3 2 2 3 3 3 3 3 2 2 2 1 1 2 2 2 2
10 12 13 14 13 11 9 7 7 6 2 3 3 4 4 3 3 4 3 2 3 3 4 5 5 4 4 3 2 2 2 3 3 3 2 2 2 2 2 2 1 2 2 3
10 11 13 14 12 10 8 7 7 5 2 2 3 3 3 2 1 2 2 1 2 2 2 3 4 4 4 3 3 2 2 2 2 3 2 2 3 2 2 2 2 2 2 2
9 10 14 7 5 6 6 4 3 1 1 1 2 4 3 2 2 2 1 1 1 1 0 2 3 3 3 3 3 3 2 2 2 2 2 2 2 2 2 2 2 3 3 3
8 12 12 8 6 6 5 3 1 0 2 2 2 2 3 3 3 2 1 2 2 1 1 1 3 3 2 2 2 2 2 2 2 3 2 3 3 3 2 2 3 3 2 3
9 11 9 4 2 4 5 3 2 2 2 3 2 2 1 3 4 4 2 2 2 1 0 1 2 3 2 3 3 3 2 2 2 3 3 3 3 3 2 2 3 2 2 3
11 11 6 3 3 4 5 1 3 3 3 3 3 2 2 2 2 2 3 2 2 1 0 1 2 3 3 2 2 2 2 2 3 3 3 3 3 3 3 3 2 2 3 3
9 10 4 5 4 3 4 5 5 5 4 4 3 3 2 2 2 2 2 2 1 1 0 1 1 2 3 3 2 2 2 2 3 3 3 3 2 2 2 3 3 3 3 3
4 2 2 3 4 4 4 4 5 4 4 3 3 3 3 3 3 3 2 1 1 1 0 1 2 2 2 2 2 2 2 2 2 2 2 2 2 2 3 3 3 2 1 1
3 2 1 1 3 4 4 4 5 5 4 4 4 3 2 3 2 3 4 2 1 2 2 2 1 1 1 2 2 2 1 1 1 2 2 1 1 2 2 1 1 1 1 0
4 4 4 4 4 4 4 5 4 4 4 4 3 2 2 2 2 2 3 3 2 2 1 1 1 1 1 1 2 2 1 1 2 2 1 1 1 2 1 2 2 1 1 1
3 3 5 4 5 5 4 5 5 5 5 4 3 3 3 2 2 2 3 4 2 2 1 1 1 1 1 0 1 1 1 1 1 1 1 1 1 2 5 3 4 4 3 2
4 6 6 6 6 6 5 6 6 5 4 4 2 3 3 2 2 2 2 3 3 2 1 1 1 1 0 0 1 2 2 2 2 2 2 2 2 2 1 2 2 3 2 1
5 6 6 6 6 6 6 6 5 4 3 3 2 3 3 2 1 2 3 3 3 2 1 1 1 1 1 1 1 2 2 2 2 2 2 2 2 2 3 2 1 1 0 1
7 7 7 7 6 6 5 5 5 4 3 2 2 2 3 3 2 2 2 3 3 1 1 1 1 1 1 1 1 2 2 2 1 1 2 2 2 2 2 2 1 1 2 1
6 6 6 6 6 6 6 5 4 3 3 2 2 2 2 3 2 3 3 3 2 2 1 1 1 2 2 2 2 2 1 1 2 2 2 2 2 2 1 1 1 1 1 1
6 6 5 5 6 6 6 4 3 3 3 3 2 2 2 3 3 2 2 3 2 1 1 1 1 1 2 2 2 2 1 2 2 3 3 1 1 0 0 1 1 0 1 1
5 5 5 5 5 6 5 5 3 3 3 3 3 2 2 2 3 2 2 3 3 2 1 0 1 1 1 2 2 2 2 1 2 2 1 0 0 0 0 1 1 1 1 2
4 5 5 4 5 6 5 5 4 3 2 3 3 2 2 3 2 2 2 3 3 2 1 1 1 2 1 1 2 2 2 1 1 1 0 1 0 1 0 1 1 1 1 1
5 5 5 5 5 5 4 4 3 3 2 2 3 2 2 3 3 2 2 3 2 1 1 1 1 1 1 1 2 2 1 1 1 1 0 1 0 0 0 1 1 1 1 1
5 6 5 4 5 5 4 3 3 3 2 2 3 3 3 2 2 2 3 3 1 0 1 1 1 1 1 1 3 2 0 1 0 1 1 0 0 1 1 0 0 0 0 0
4 5 5 5 5 4 3 3 3 2 2 3 3 3 3 3 3 3 2 1 1 1 1 1 0 2 3 2 2 1 0 1 1 1 1 0 1 1 1 0 0 0 0 1
4 5 5 5 4 3 3 3 3 2 3 3 3 3 4 3 3 2 2 1 2 2 1 0 2 2 1 1 1 1 0 0 1 0 0 0 0 1 1 1 1 1 1 1
5 5 5 4 4 3 3 3 3 2 3 3 4 3 3 3 2 2 2 3 3 3 1 2 3 2 2 1 1 1 1 1 0 0 0 0 0 0 1 0 0 1 1 1
4 4 4 4 3 3 3 3 3 3 4 3 3 2 2 2 2 1 1 2 4 4 2 3 4 4 3 2 1 0 1 1 1 0 1 1 0 0 1 1 1 1 1 1
4 4 3 3 3 3 3 3 3 2 2 1 1 1 1 1 1 1 1 3 3 2 2 2 3 3 2 2 1 1 1 1 1 0 0 0 1 1 1 1 1 1 1 1
4 3 2 3 3 3 2 2 2 1 1 1 1 1 1 1 0 1 1 1 2 2 1 1 2 2 1 1 0 0 1 1 1 1 1 1 1 1 1 1 1 1 1 1
Wind_Direction
277 280 274 268 272 266 257 263 273 258 208 182 138 92 77 85 93 82 90 111 113 122 127 137 132 134 138 148 150 154 162 169 172 178 173 181 199 208 200 211 220 229 249 253
272 273 275 272 267 264 261 260 264 258 230 134 113 87 84 85 107 108 90 95 105 117 128 136 139 146 150 155 151 152 171 176 165 172 172 188 212 203 205 212 224 231 231 243
273 274 270 261 257 255 251 242 247 244 196 149 123 100 94 87 104 103 104 99 82 63 118 143 147 152 158 156 159 166 185 181 164 170 179 197 220 211 228 230 228 237 238 242
266 267 258 259 275 265 262 242 248 243 165 148 115 122 102 77 64 82 83 73 84 62 151 162 153 149 156 159 162 175 187 192 179 188 199 203 213 222 229 232 234 233 230 235
259 255 255 252 262 271 263 255 329 11 95 79 82 119 109 48 38 39 77 92 88 79 242 163 145 141 150 175 177 193 197 198 204 199 206 213 218 234 240 239 237 233 229 230
255 259 263 267 312 299 265 233 30 41 63 66 42 271 96 45 29 2 355 75 70 66 56 102 127 149 172 200 200 212 206 211 218 210 211 217 218 228 229 234 237 236 236 233
249 257 262 321 329 289 261 35 32 38 50 46 29 349 39 29 28 358 5 52 62 57 69 115 141 162 176 200 220 233 225 213 215 213 221 220 213 216 219 228 236 234 234 243
245 252 253 3 354 10 34 27 25 29 34 41 31 18 45 14 357 347 1 45 17 16 70 124 159 176 184 200 216 224 220 219 214 211 227 221 210 222 222 225 231 230 228 236
267 255 95 44 53 46 29 18 1 6 20 16 12 4 15 5 352 355 358 15 345 343 31 136 174 192 199 187 173 201 213 213 212 206 217 195 207 226 222 224 236 231 202 208
284 245 305 355 46 34 11 355 347 347 359 359 358 354 3 355 351 354 347 348 354 357 27 27 46 176 190 161 163 180 183 196 203 204 216 191 219 235 244 262 269 296 299 285
271 284 301 328 346 352 342 335 334 335 333 331 331 320 334 334 345 3 359 347 356 8 25 358 358 45 43 124 150 167 180 191 200 215 207 149 86 32 24 37 22 347 330 347
283 311 295 300 315 316 319 322 319 316 315 316 322 324 336 347 353 358 3 348 349 6 8 4 354 357 39 54 162 165 192 204 213 210 184 184 158 96 52 59 57 54 51 52
293 289 286 297 302 310 314 311 306 303 307 308 331 329 338 346 350 352 343 342 344 345 352 8 349 332 293 232 215 202 204 219 215 208 204 213 200 173 150 76 62 48 36 62
313 313 295 296 300 306 304 302 299 296 300 311 319 317 312 317 342 338 328 326 317 323 322 332 330 339 344 292 263 246 241 236 222 200 209 220 220 207 196 196 190 170 352 217
291 288 287 296 298 295 293 297 296 286 280 290 305 306 308 315 326 315 311 311 309 311 324 345 344 335 309 276 243 243 245 238 228 232 240 226 224 228 218 193 178 156 126 114
281 287 289 286 289 289 287 289 291 295 297 298 304 319 324 325 325 315 314 316 316 323 8 349 316 312 303 282 255 251 233 210 231 245 248 244 240 245 215 157 146 136 141 133
272 276 282 284 285 288 288 286 281 280 292 303 305 324 330 316 309 310 306 316 321 325 294 247 272 302 308 292 274 274 251 205 224 250 252 254 247 251 148 132 152 151 120 117
273 280 278 278 282 287 294 296 285 285 294 308 310 304 289 285 296 312 317 321 311 305 297 292 20 322 307 307 293 279 273 245 242 242 233 107 23 349 216 148 147 133 144 165
287 285 282 282 284 284 280 277 271 279 289 293 296 302 309 303 296 290 313 307 289 279 318 33 5 291 292 0 333 271 256 249 236 212 173 123 203 263 215 159 175 197 196 186
303 292 285 284 284 290 286 273 267 270 280 288 286 286 285 282 284 281 288 288 285 315 334 352 284 281 283 18 318 288 274 246 197 166 119 152 179 120 109 180 195 202 206 203
303 304 297 293 296 296 295 282 266 261 262 259 271 277 276 278 271 266 271 266 256 316 295 265 259 301 351 345 289 276 239 202 164 131 151 161 122 98 80 67 53 308 271 279
306 303 299 295 294 294 292 279 268 263 257 249 249 254 265 265 257 253 249 257 217 131 236 254 14 53 30 336 285 286 221 147 105 100 115 105 96 103 87 31 342 345 2 34
308 302 299 291 290 286 277 277 271 262 252 249 252 254 260 269 256 243 239 203 180 150 207 9 82 87 42 302 283 265 252 97 62 55 72 54 45 78 76 19 18 32 36 27
291 290 288 286 285 282 275 274 273 258 246 247 248 251 260 260 249 221 198 161 149 151 183 128 147 163 190 248 251 207 162 156 139 106 49 30 357 67 91 57 10 28 40 22
282 276 271 271 272 271 268 263 259 251 247 250 251 233 230 238 255 246 197 151 152 170 163 142 172 184 206 245 233 192 166 144 113 69 16 37 13 27 70 72 48 23 13 3
271 267 265 263 266 265 263 260 264 267 260 242 243 253 243 212 214 193 189 187 178 169 159 144 161 181 211 220 206 202 164 118 116 111 55 56 35 49 51 27 9 35 36 14
258 255 254 256 254 261 272 281 284 284 284 292 3 342 324 329 306 242 210 174 143 139 138 146 157 170 218 244 266 26 61 58 55 58 53 42 44 67 70 47 46 42 13 17